[[{"header":{"parameterUnit":"m.s-1","parameterCategory":1,"la1":30.2992,"la2":30.254,"lo1":-89.0895,"lo2":-89.0443,"dy":0.0025,"dx":0.0025,"nx":19,"ny":19,"refTime":"2026-05-16T09:00:00:Z","depth":0,"parameterNumber":2,"parameterNumberName":"U-component_of_WINDS"},"data":[0,0,0,-4.8261,-4.8261,-4.8267,-4.8267,-4.8289,-4.8289,0,0,0,0,0,0,0,0,0,0,0,-4.8268,-4.8268,-4.8261,-4.8261,-4.8267,-4.8267,-4.8289,-4.8289,0,0,0,0,0,0,0,0,0,0,0,-4.8267,-4.8268,-4.8268,-4.8261,-4.8267,-4.8267,-4.8289,-4.8279,0,0,0,0,0,0,0,0,0,0,-4.8271,-4.8285,-4.8268,-4.8268,-4.8261,-4.8267,-4.8267,-4.8278,-4.828,-4.8293,0,-4.8306,0,-4.8298,-4.8292,-4.8292,0,0,0,-4.8254,-4.8284,-4.8279,-4.8269,-4.8261,-4.8267,-4.8262,-4.8279,-4.8281,-4.8295,-4.8306,-4.8307,-4.8299,-4.8292,-4.8292,-4.8389,-4.839,0,0,-4.8254,-4.8273,-4.8278,-4.828,-4.828,-4.8262,-4.8263,-4.828,-4.8294,-4.8306,-4.8307,-4.8299,-4.8292,-4.8293,-4.8388,-4.8389,0,0,0,-4.8258,-4.8273,-4.8266,-4.828,-4.828,-4.8263,-4.8263,-4.8293,-4.8289,-4.8307,-4.8299,-4.8292,-4.8293,-4.8387,-4.8388,-4.8443,0,0,0,-4.8257,-4.8275,-4.8266,-4.8278,-4.828,-4.8286,-4.8276,-4.8288,-4.8289,-4.8299,-4.8293,-4.8293,-4.8386,-4.8388,-4.8439,-4.8464,0,0,0,-4.8264,-4.8276,-4.828,-4.8279,-4.8282,-4.8286,-4.8283,-4.8288,-4.8285,-4.8292,-4.8293,-4.8386,-4.8388,-4.8436,-4.8459,-4.8493,0,0,0,-4.8277,-4.8328,-4.8281,-4.8335,-4.8283,-4.8321,-4.8282,-4.831,-4.8322,-4.8293,-4.8387,-4.8388,-4.8435,-4.8456,-4.849,-4.8523,-4.8539,0,0,-4.8351,-4.8337,-4.8368,-4.8326,-4.8377,-4.8318,-4.8377,-4.837,-4.8354,-4.8378,-4.838,-4.8441,-4.8459,-4.8493,-4.8631,-4.8644,0,0,0,-4.8398,-4.842,-4.843,-4.8443,-4.8441,-4.844,-4.8423,-4.8421,-4.8441,-4.8371,-4.8464,-4.8474,-4.8493,-4.8507,-4.8518,-4.8533,-4.8397,-4.8397,-4.8397,-4.8527,-4.8505,-4.8554,-4.8533,-4.8548,-4.8531,-4.854,-4.8534,-4.8507,-4.853,-4.8535,-4.8622,-4.864,-4.8648,-4.8663,-4.8554,-4.8554,-4.8555,-4.8555,-4.8632,-4.8658,-4.8624,-4.8658,-4.8635,-4.8664,-4.8652,-4.8633,-4.8656,-4.8616,-4.8631,-4.8586,-4.8663,-4.8675,-4.8559,-4.8558,-4.8557,-4.8557,-4.8557,-4.871,-4.8719,-4.8718,-4.8736,-4.8753,-4.8732,-4.8756,-4.8735,-4.8715,-4.8731,-4.8734,-4.8733,-4.8726,-4.8735,-4.8735,-4.8736,-4.8736,-4.8736,-4.8736,-4.879,-4.8787,-4.881,-4.8815,-4.8822,-4.8828,-4.8816,-4.8821,-4.8822,-4.8805,-4.8805,-4.8774,-4.8677,-4.865,-4.8741,-4.874,-4.8739,-4.8739,-4.8739,-4.8897,-4.8871,-4.8906,-4.8913,-4.8918,-4.8936,-4.8911,-4.8926,-4.8928,-4.8941,-4.8909,-4.8842,-4.8825,-4.8816,-4.8793,-4.8915,-4.8915,-4.8915,-4.8915,-4.896,-4.8952,-4.8984,-4.8997,-4.9008,-4.8989,-4.903,-4.9023,-4.901,-4.901,-4.8991,-4.8961,-4.8953,-4.8941,-4.8929,-4.8907,-4.9056,-4.9056,-4.9056,-4.9024,-4.9016,-4.9054,-4.9042,-4.9045,-4.9048,-4.9086,-4.9102,-4.9083,-4.9061,-4.9009,-4.9003,-4.8955,-4.8941,-4.8913,-4.8896,-4.8856,0,0]},{"header":{"parameterUnit":"m.s-1","parameterCategory":1,"la1":30.2992,"la2":30.254,"lo1":-89.0895,"lo2":-89.0443,"dy":0.0025,"dx":0.0025,"nx":19,"ny":19,"refTime":"2026-05-16T09:00:00:Z","depth":0,"parameterNumber":3,"parameterNumberName":"V-component_of_WINDS"},"data":[0,0,0,5.3087,5.3088,5.3121,5.3122,5.3161,5.3162,0,0,0,0,0,0,0,0,0,0,0,5.3075,5.3076,5.3087,5.3088,5.3121,5.3122,5.3161,5.3162,0,0,0,0,0,0,0,0,0,0,0,5.3075,5.3075,5.3076,5.3088,5.3121,5.3122,5.3161,5.3137,0,0,0,0,0,0,0,0,0,0,5.3104,5.3092,5.3075,5.3076,5.3088,5.3121,5.3122,5.3136,5.3138,5.3145,0,5.3151,0,5.3157,5.3164,5.3164,0,0,0,5.3088,5.309,5.3101,5.3076,5.3088,5.3121,5.3106,5.3137,5.314,5.3148,5.3152,5.3153,5.3158,5.3164,5.3165,5.3203,5.3204,0,0,5.3086,5.308,5.3099,5.3103,5.3098,5.3105,5.3107,5.3139,5.3142,5.3152,5.3154,5.3158,5.3165,5.3165,5.3203,5.3203,0,0,0,5.3081,5.3079,5.3089,5.3101,5.3108,5.3106,5.3109,5.314,5.3144,5.3155,5.3159,5.3165,5.3165,5.3203,5.3203,5.3206,0,0,0,5.3079,5.3076,5.3088,5.3085,5.3107,5.3124,5.3109,5.3142,5.3146,5.3159,5.3165,5.3166,5.3203,5.3203,5.3205,5.3208,0,0,0,5.3074,5.3075,5.3079,5.3084,5.3099,5.3124,5.313,5.3143,5.3148,5.3164,5.3166,5.3203,5.3203,5.3205,5.3207,5.3217,0,0,0,5.3065,5.3079,5.3079,5.3097,5.3098,5.3126,5.313,5.315,5.3164,5.3165,5.3203,5.3203,5.3205,5.3207,5.3217,5.3225,5.3227,0,0,5.308,5.3081,5.3092,5.3093,5.3119,5.3121,5.3147,5.3165,5.3171,5.3192,5.3193,5.3205,5.3207,5.3217,5.3244,5.3246,0,0,0,5.3095,5.3103,5.3111,5.3125,5.314,5.3154,5.3168,5.3175,5.3194,5.3181,5.3212,5.3213,5.3219,5.3223,5.3225,5.3231,5.3205,5.3205,5.3205,5.3105,5.3115,5.3134,5.3148,5.3162,5.3178,5.319,5.3202,5.3206,5.3213,5.3219,5.3235,5.3239,5.3241,5.3247,5.3224,5.3224,5.3224,5.3224,5.3128,5.3141,5.3149,5.317,5.318,5.3197,5.3214,5.3217,5.3234,5.323,5.3236,5.3231,5.3243,5.3249,5.3224,5.3224,5.3224,5.3224,5.3224,5.3137,5.3145,5.3154,5.3177,5.3194,5.3207,5.3225,5.3232,5.3239,5.3245,5.3253,5.3253,5.3255,5.3248,5.3249,5.3249,5.3249,5.3249,5.3249,5.3141,5.3152,5.3167,5.3186,5.3198,5.3213,5.3231,5.3242,5.3256,5.326,5.326,5.3264,5.3242,5.3237,5.325,5.3249,5.3249,5.3249,5.3249,5.3161,5.3159,5.3181,5.3193,5.3217,5.3234,5.3244,5.3266,5.3276,5.3285,5.3288,5.3271,5.3272,5.327,5.3266,5.3285,5.3285,5.3285,5.3285,5.3169,5.3171,5.3197,5.3215,5.3234,5.3246,5.3272,5.3286,5.3301,5.3308,5.3306,5.3301,5.3299,5.3302,5.3299,5.3296,5.3322,5.3322,5.3322,5.3182,5.3187,5.3207,5.3223,5.3243,5.326,5.3285,5.3305,5.332,5.3324,5.3314,5.3312,5.3304,5.3301,5.3303,5.33,5.3293,0,0]}]]